EW7512 Weather Reports


Display with metric or nautical units.
time (UTC)temp
F
wind
direction
speed
MPH
gust
MPH
rain 1hr
in
rain 24hr
in
rain mn
in
humidity
%
barometer
mb
20260509093549 77 109 2.0 4.0 0.00 0.00 0.00 38 1016.3
20260509093049 76 128 1.0 5.0 0.00 0.00 0.00 39 1016.2
20260509092546 77 224 2.0 9.0 0.00 0.00 0.00 38 1016.4
20260509092045 76 288 3.0 7.0 0.00 0.00 0.00 41 1016.3
20260509091546 76 355 2.0 8.0 0.00 0.00 0.00 39 1016.4
20260509091044 76 157 2.0 9.0 0.00 0.00 0.00 41 1016.5
20260509090544 75 214 2.0 9.0 0.00 0.00 0.00 42 1016.5
20260509090044 75 96 1.0 9.0 0.00 0.00 0.00 42 1016.5
20260509085543 75 148 2.0 9.0 0.00 0.00 0.00 42 1016.5
20260509085043 75 258 2.0 5.0 0.00 0.00 0.00 42 1016.6
20260509084546 76 82 1.0 6.0 0.00 0.00 0.00 41 1016.6
20260509084043 75 184 2.0 7.0 0.00 0.00 0.00 42 1016.6
20260509083540 75 128 3.0 9.0 0.00 0.00 0.00 41 1016.6
20260509083041 74 207 2.0 9.0 0.00 0.00 0.00 43 1016.6
20260509082539 74 42 1.0 5.0 0.00 0.00 0.00 42 1016.6
20260509082038 75 55 2.0 4.0 0.00 0.00 0.00 43 1016.7
20260509081542 74 234 1.0 5.0 0.00 0.00 0.00 44 1016.6
20260509081036 74 245 2.0 7.0 0.00 0.00 0.00 46 1016.5
20260509080535 73 104 2.0 7.0 0.00 0.00 0.00 47 1016.5
20260509080036 72 88 1.0 3.0 0.00 0.00 0.00 48 1016.5
20260509075532 72 76 1.0 6.0 0.00 0.00 0.00 49 1016.5
20260509075034 72 32 2.0 6.0 0.00 0.00 0.00 49 1016.6
20260509074542 72 82 1.0 4.0 0.00 0.00 0.00 49 1016.6
20260509074031 72 62 1.0 5.0 0.00 0.00 0.00 50 1016.6
20260509073530 71 252 2.0 5.0 0.00 0.00 0.00 50 1016.6
20260509073030 71 69 1.0 4.0 0.00 0.00 0.00 50 1016.6
20260509072530 71 76 1.0 4.0 0.00 0.00 0.00 52 1016.6
20260509072029 71 73 1.0 4.0 0.00 0.00 0.00 52 1016.7
20260509071529 70 61 2.0 4.0 0.00 0.00 0.00 51 1016.7
20260509071028 71 63 2.0 5.0 0.00 0.00 0.00 51 1016.7
20260509070527 71 321 1.0 5.0 0.00 0.00 0.00 52 1016.7
20260509070026 69 105 2.0 5.0 0.00 0.00 0.00 55 1016.7
20260509065525 69 101 2.0 6.0 0.00 0.00 0.00 60 1016.7
20260509065025 69 57 0.0 4.0 0.00 0.00 0.00 60 1016.7
20260509064522 68 58 0.0 4.0 0.00 0.00 0.00 58 1016.8
20260509064024 67 58 0.0 0.0 0.00 0.00 0.00 61 1016.8
20260509063518 66 61 0.0 0.0 0.00 0.00 0.00 66 1016.8
20260509063026 65 61 0.0 0.0 0.00 0.00 0.00 67 1016.8
20260509062521 65 60 0.0 0.0 0.00 0.00 0.00 68 1016.7
20260509062020 64 60 0.0 0.0 0.00 0.00 0.00 72 1016.7
20260509061514 63 347 0.0 0.0 0.00 0.00 0.00 74 1016.7
20260509061021 62 360 0.0 0.0 0.00 0.00 0.00 76 1016.7
20260509060511 62 346 0.0 0.0 0.00 0.00 0.00 76 1016.6
20260509060016 61 360 0.0 0.0 0.00 0.00 0.00 77 1016.5
20260509055511 61 335 0.0 0.0 0.00 0.00 0.00 78 1016.5
20260509055011 60 360 0.0 2.0 0.00 0.00 0.00 80 1016.6
20260509054510 60 337 0.0 4.0 0.00 0.00 0.00 79 1016.6
20260509054008 60 337 0.0 6.0 0.00 0.00 0.00 78 1016.7
20260509053508 60 355 1.0 3.0 0.00 0.00 0.00 74 1016.7
20260509053007 60 69 0.0 0.0 0.00 0.00 0.00 75 1016.7
20260509052506 59 69 0.0 0.0 0.00 0.00 0.00 77 1016.5
20260509052005 59 333 0.0 0.0 0.00 0.00 0.00 79 1016.4
20260509051507 59 331 0.0 0.0 0.00 0.00 0.00 81 1016.4
20260509051005 59 331 0.0 0.0 0.00 0.00 0.00 81 1016.5
20260509050505 59 331 0.0 0.0 0.00 0.00 0.00 81 1016.7
20260509050005 59 331 0.0 0.0 0.00 0.00 0.00 81 1016.9
20260509045505 59 331 0.0 0.0 0.00 0.00 0.00 81 1016.9
20260509045005 59 330 0.0 0.0 0.00 0.00 0.00 82 1016.6
20260509044505 59 331 0.0 0.0 0.00 0.00 0.00 81 1016.7
20260509044010 59 330 0.0 0.0 0.00 0.00 0.00 81 1016.7
20260509043508 58 330 0.0 0.0 0.00 0.00 0.00 82 1016.7
20260509043005 58 331 0.0 0.0 0.00 0.00 0.00 83 1016.6
20260509042504 58 331 0.0 0.0 0.00 0.00 0.00 83 1016.6
20260509042006 58 330 0.0 0.0 0.00 0.00 0.00 83 1016.8
20260509041503 58 330 0.0 1.0 0.00 0.00 0.00 82 1016.8
20260509041002 58 360 0.0 4.0 0.00 0.00 0.00 80 1016.8
20260509040501 58 329 0.0 5.0 0.00 0.00 0.00 78 1016.9
20260509040100 58 194 1.0 5.0 0.00 0.00 0.00 77 1016.9
20260509035558 58 360 0.0 0.0 0.00 0.00 0.00 75 1016.7
20260509035058 58 360 0.0 0.0 0.00 0.00 0.00 73 1016.7
20260509034558 58 87 0.0 0.0 0.00 0.00 0.00 71 1016.5
20260509034057 59 360 0.0 2.0 0.00 0.00 0.00 69 1016.6
20260509033557 59 360 0.0 2.0 0.00 0.00 0.00 70 1016.5
20260509033057 58 360 0.0 2.0 0.00 0.00 0.00 71 1016.5
20260509032557 58 360 1.0 2.0 0.00 0.00 0.00 70 1016.5
20260509032055 59 360 0.0 1.0 0.00 0.00 0.00 70 1016.4
20260509031555 58 93 0.0 1.0 0.00 0.00 0.00 71 1016.4
20260509031100 57 360 0.0 1.0 0.00 0.00 0.00 74 1016.4
20260509030558 57 360 0.0 1.0 0.00 0.00 0.00 75 1016.3
20260509030055 57 94 0.0 1.0 0.00 0.00 0.00 75 1016.4
20260509025559 57 360 0.0 1.0 0.00 0.00 0.00 75 1016.4
20260509025055 57 360 0.0 1.0 0.00 0.00 0.00 75 1016.5
20260509024554 57 360 0.0 2.0 0.00 0.00 0.00 75 1016.2
20260509024055 57 360 0.0 2.0 0.00 0.00 0.00 75 1016.2
20260509023553 57 360 0.0 0.0 0.00 0.00 0.00 75 1016.0
20260509023108 57 360 0.0 0.0 0.00 0.00 0.00 76 1016.1
20260509022553 57 360 0.0 0.0 0.00 0.00 0.00 75 1016.2
20260509022051 58 360 0.0 1.0 0.00 0.00 0.00 74 1016.2
20260509021550 58 360 0.0 1.0 0.00 0.00 0.00 74 1016.3
20260509021049 58 360 0.0 2.0 0.00 0.00 0.00 73 1016.3
20260509020548 58 360 1.0 2.0 0.00 0.00 0.00 73 1016.3
20260509020055 58 360 0.0 0.0 0.00 0.00 0.00 73 1016.4
20260509015548 58 360 0.0 2.0 0.00 0.00 0.00 73 1016.4
20260509015046 59 360 0.0 2.0 0.00 0.00 0.00 72 1016.4
20260509014547 59 90 0.0 2.0 0.00 0.00 0.00 72 1016.5
20260509014045 59 90 0.0 2.0 0.00 0.00 0.00 71 1016.6
20260509013545 59 90 0.0 2.0 0.00 0.00 0.00 71 1016.6
20260509013049 59 90 0.0 2.0 0.00 0.00 0.00 70 1016.7
20260509012545 59 90 0.0 2.0 0.00 0.00 0.00 70 1016.8
20260509012043 59 90 0.0 2.0 0.00 0.00 0.00 71 1016.8
20260509011543 59 90 0.0 2.0 0.00 0.00 0.00 72 1016.9
20260509011043 59 90 0.0 2.0 0.00 0.00 0.00 73 1017.0
20260509010541 59 90 0.0 1.0 0.00 0.00 0.00 73 1017.1
20260509010043 59 90 0.0 3.0 0.00 0.00 0.00 74 1017.2
20260509005542 59 89 0.0 3.0 0.00 0.00 0.00 74 1017.2
20260509005040 59 86 0.0 2.0 0.00 0.00 0.00 74 1017.1
20260509004543 59 86 0.0 2.0 0.00 0.00 0.00 74 1017.3
20260509004039 59 86 0.0 2.0 0.00 0.00 0.00 74 1017.3
20260509003539 59 86 0.0 3.0 0.00 0.00 0.00 74 1017.3
20260509003039 59 86 0.0 3.0 0.00 0.00 0.00 74 1017.3
20260509002538 59 91 0.0 2.0 0.00 0.00 0.00 73 1017.5
20260509002039 59 91 0.0 2.0 0.00 0.00 0.00 73 1017.5
20260509001537 59 91 0.0 2.0 0.00 0.00 0.00 73 1017.5
20260509001037 59 92 0.0 2.0 0.00 0.00 0.00 72 1017.5
20260509000535 59 92 0.0 3.0 0.00 0.00 0.00 72 1017.5
20260509000036 59 92 0.0 3.0 0.00 0.00 0.00 72 1017.6
20260508235536 59 92 0.0 2.0 0.00 0.00 0.00 73 1017.5
20260508235035 59 92 0.0 2.0 0.00 0.00 0.00 73 1017.7
20260508234539 59 92 0.0 2.0 0.00 0.00 0.00 73 1017.6
20260508234034 59 63 1.0 3.0 0.00 0.00 0.00 74 1017.6
20260508233534 59 63 0.0 3.0 0.00 0.00 0.00 74 1017.7
20260508233034 59 63 0.0 2.0 0.00 0.00 0.00 74 1017.8
20260508232531 59 62 0.0 3.0 0.00 0.00 0.00 74 1017.9
20260508232030 59 62 0.0 3.0 0.00 0.00 0.00 73 1017.9
20260508231530 59 60 0.0 4.0 0.00 0.00 0.00 73 1018.2
20260508231033 59 60 1.0 4.0 0.00 0.00 0.00 73 1018.1
20260508230530 60 60 0.0 3.0 0.00 0.00 0.00 72 1018.1
20260508230039 60 61 0.0 2.0 0.00 0.00 0.00 71 1018.1
20260508225527 60 65 0.0 2.0 0.00 0.00 0.00 70 1018.1
20260508225027 60 360 0.0 2.0 0.00 0.00 0.00 70 1018.2
20260508224527 60 360 0.0 3.0 0.00 0.00 0.00 69 1018.3
20260508224024 61 60 1.0 5.0 0.00 0.00 0.00 68 1018.1
20260508223527 61 59 1.0 5.0 0.00 0.00 0.00 67 1018.2
20260508223028 61 74 1.0 4.0 0.00 0.00 0.00 67 1018.4
20260508222523 61 71 1.0 4.0 0.00 0.00 0.00 68 1018.4
20260508222024 61 61 1.0 2.0 0.00 0.00 0.00 68 1018.3
20260508221523 61 61 0.0 3.0 0.00 0.00 0.00 68 1018.2
20260508221024 61 62 1.0 3.0 0.00 0.00 0.00 67 1018.1
20260508220523 61 62 1.0 3.0 0.00 0.00 0.00 67 1018.2
20260508220026 61 64 0.0 2.0 0.00 0.00 0.00 66 1018.2
20260508215530 61 65 0.0 3.0 0.00 0.00 0.00 65 1018.2
20260508215020 61 64 0.0 3.0 0.00 0.00 0.00 65 1018.3
20260508214527 61 64 1.0 3.0 0.00 0.00 0.00 64 1018.4
20260508214019 62 64 1.0 4.0 0.00 0.00 0.00 64 1018.5
20260508213518 62 86 1.0 3.0 0.00 0.00 0.00 63 1018.5
20260508213019 62 74 1.0 5.0 0.00 0.00 0.00 63 1018.4
20260508212518 62 74 2.0 5.0 0.00 0.00 0.00 62 1018.4
20260508212016 62 78 1.0 3.0 0.00 0.00 0.00 62 1018.5
20260508211529 62 78 1.0 3.0 0.00 0.00 0.00 62 1018.4
20260508211015 62 103 0.0 3.0 0.00 0.00 0.00 62 1018.2
20260508210514 62 44 1.0 3.0 0.00 0.00 0.00 62 1018.1
20260508210013 62 80 0.0 4.0 0.00 0.00 0.00 62 1018.2
20260508205512 62 84 1.0 4.0 0.00 0.00 0.00 62 1018.3
20260508205012 62 85 1.0 4.0 0.00 0.00 0.00 62 1018.3
20260508204513 62 88 1.0 3.0 0.00 0.00 0.00 62 1018.2
20260508204012 62 89 0.0 3.0 0.00 0.00 0.00 63 1018.2
20260508203513 62 89 1.0 3.0 0.00 0.00 0.00 63 1018.3
20260508203012 62 84 0.0 2.0 0.00 0.00 0.00 62 1018.3
20260508202512 62 84 0.0 3.0 0.00 0.00 0.00 62 1018.3
20260508202011 62 84 1.0 3.0 0.00 0.00 0.00 62 1018.3
20260508201515 62 85 0.0 1.0 0.00 0.00 0.00 61 1018.2
20260508201014 62 78 0.0 0.0 0.00 0.00 0.00 61 1018.3
20260508200511 62 78 0.0 0.0 0.00 0.00 0.00 61 1018.2
20260508200011 62 72 0.0 1.0 0.00 0.00 0.00 61 1018.2
20260508195510 62 72 0.0 2.0 0.00 0.00 0.00 61 1017.9
20260508195011 62 71 0.0 4.0 0.00 0.00 0.00 61 1018.0
20260508194525 62 78 1.0 2.0 0.00 0.00 0.00 61 1017.9
20260508194011 62 88 0.0 4.0 0.00 0.00 0.00 61 1017.8
20260508193510 62 88 1.0 4.0 0.00 0.00 0.00 61 1017.8
20260508193011 63 91 0.0 3.0 0.00 0.00 0.00 61 1017.9
20260508192513 63 91 1.0 3.0 0.00 0.00 0.00 61 1017.8
20260508192010 62 92 0.0 3.0 0.00 0.00 0.00 62 1017.8
20260508191509 62 93 0.0 3.0 0.00 0.00 0.00 62 1017.7
20260508191009 62 93 0.0 4.0 0.00 0.00 0.00 63 1017.8
20260508190513 62 87 0.0 3.0 0.00 0.00 0.00 64 1017.7
20260508190013 62 88 1.0 4.0 0.00 0.00 0.00 65 1017.7
20260508185509 62 90 1.0 3.0 0.00 0.00 0.00 65 1017.7
20260508185015 62 94 1.0 3.0 0.00 0.00 0.00 65 1017.4
20260508184510 62 101 0.0 3.0 0.00 0.00 0.00 65 1017.3
20260508184008 62 101 1.0 4.0 0.00 0.00 0.00 65 1017.2
20260508183512 62 134 1.0 4.0 0.00 0.00 0.00 64 1017.0
20260508183018 62 131 0.0 3.0 0.00 0.00 0.00 64 1017.1
20260508182508 62 116 1.0 5.0 0.00 0.00 0.00 64 1017.1
20260508182008 62 101 0.0 4.0 0.00 0.00 0.00 64 1017.1
20260508181510 62 70 1.0 4.0 0.00 0.00 0.00 64 1017.2
20260508181008 62 71 1.0 7.0 0.00 0.00 0.00 63 1017.1
20260508180509 62 77 1.0 7.0 0.00 0.00 0.00 63 1016.9
20260508180012 62 96 1.0 4.0 0.00 0.00 0.00 63 1016.7
20260508175508 62 100 0.0 3.0 0.00 0.00 0.00 63 1016.6
20260508175015 62 117 0.0 3.0 0.00 0.00 0.00 62 1016.5
20260508174507 62 118 1.0 5.0 0.00 0.00 0.00 62 1016.5
20260508174007 63 44 1.0 5.0 0.00 0.00 0.00 62 1016.4
20260508173508 63 360 1.0 3.0 0.00 0.00 0.00 61 1016.2
20260508173007 63 360 0.0 3.0 0.00 0.00 0.00 61 1016.2
20260508172512 63 360 1.0 3.0 0.00 0.00 0.00 60 1016.2
20260508172006 63 360 0.0 3.0 0.00 0.00 0.00 60 1015.8
20260508171506 64 74 0.0 3.0 0.00 0.00 0.00 59 1016.0
20260508171006 64 71 1.0 4.0 0.00 0.00 0.00 58 1016.1
20260508170506 64 74 2.0 4.0 0.00 0.00 0.00 58 1016.2
20260508170006 64 73 1.0 5.0 0.00 0.00 0.00 58 1016.2
20260508165505 65 360 1.0 5.0 0.00 0.00 0.00 57 1016.2
20260508165005 65 360 2.0 4.0 0.00 0.00 0.00 56 1016.1
20260508164510 65 360 1.0 4.0 0.00 0.00 0.00 56 1016.0
20260508164005 65 69 1.0 4.0 0.00 0.00 0.00 56 1016.0
20260508163506 65 70 1.0 5.0 0.00 0.00 0.00 56 1016.0
20260508163008 66 360 2.0 6.0 0.00 0.00 0.00 56 1015.9
20260508162505 66 360 1.0 6.0 0.00 0.00 0.00 56 1015.8
20260508162008 66 60 3.0 5.0 0.00 0.00 0.00 55 1015.9
20260508161510 66 77 2.0 5.0 0.00 0.00 0.00 55 1015.8
20260508161004 66 63 2.0 7.0 0.00 0.00 0.00 55 1015.7
20260508160504 67 86 2.0 7.0 0.00 0.00 0.00 54 1015.8
20260508160006 67 73 2.0 6.0 0.00 0.00 0.00 54 1015.8
20260508155504 67 65 2.0 6.0 0.00 0.00 0.00 53 1015.7
20260508155004 68 41 2.0 10.0 0.00 0.00 0.00 53 1015.7
20260508154624 68 75 4.0 10.0 0.00 0.00 0.00 52 1015.7
20260508154003 68 54 2.0 6.0 0.00 0.00 0.00 53 1015.6
20260508153504 68 80 2.0 8.0 0.00 0.00 0.00 52 1015.6
20260508153004 68 96 2.0 8.0 0.00 0.00 0.00 53 1015.6
20260508152504 69 71 2.0 6.0 0.00 0.00 0.00 54 1015.6
20260508152002 69 46 2.0 8.0 0.00 0.00 0.00 53 1015.6
20260508151506 69 69 3.0 8.0 0.00 0.00 0.00 53 1015.5
20260508151002 70 71 2.0 8.0 0.00 0.00 0.00 53 1015.5
20260508150503 70 58 2.0 8.0 0.00 0.00 0.00 53 1015.4
20260508150002 70 48 3.0 8.0 0.00 0.00 0.00 52 1015.4
20260508145502 71 30 3.0 7.0 0.00 0.00 0.00 50 1015.5
20260508145001 71 91 2.0 8.0 0.00 0.00 0.00 50 1015.5
20260508144503 71 70 3.0 8.0 0.00 0.00 0.00 49 1015.5
20260508144101 71 84 2.0 8.0 0.00 0.00 0.00 49 1015.5
20260508143600 71 51 3.0 7.0 0.00 0.00 0.00 48 1015.6
20260508143106 71 102 2.0 8.0 0.00 0.00 0.00 47 1015.8
20260508142559 71 179 3.0 8.0 0.00 0.00 0.00 46 1015.8
20260508142058 71 108 2.0 7.0 0.00 0.00 0.00 45 1015.8
20260508141605 72 98 2.0 5.0 0.00 0.00 0.00 46 1015.8
20260508141056 71 65 1.0 6.0 0.00 0.00 0.00 46 1015.9
20260508140559 72 71 2.0 6.0 0.00 0.00 0.00 46 1015.9
20260508140056 72 168 2.0 6.0 0.00 0.00 0.00 46 1016.0
20260508135556 72 24 2.0 9.0 0.00 0.00 0.00 46 1016.1
20260508135054 71 360 2.0 9.0 0.00 0.00 0.00 45 1016.3
20260508134621 71 123 1.0 6.0 0.00 0.00 0.00 46 1016.4
20260508134053 71 49 2.0 6.0 0.00 0.00 0.00 45 1016.4
20260508133552 71 79 1.0 8.0 0.00 0.00 0.00 46 1016.5
20260508133059 72 73 2.0 8.0 0.00 0.00 0.00 44 1016.7
20260508132554 72 80 2.0 8.0 0.00 0.00 0.00 44 1016.6
20260508132051 72 115 2.0 6.0 0.00 0.00 0.00 44 1016.6
20260508131553 72 82 1.0 6.0 0.00 0.00 0.00 44 1016.7
20260508131051 71 96 2.0 7.0 0.00 0.00 0.00 44 1016.7
20260508130550 71 137 2.0 10.0 0.00 0.00 0.00 43 1016.8
20260508130050 72 29 4.0 10.0 0.00 0.00 0.00 43 1016.8
20260508125550 72 129 2.0 9.0 0.00 0.00 0.00 43 1016.9
20260508125049 72 89 4.0 10.0 0.00 0.00 0.00 43 1017.0
20260508124549 72 101 1.0 12.0 0.00 0.00 0.00 44 1017.3
20260508124048 72 80 3.0 14.0 0.00 0.00 0.00 43 1017.3
20260508123548 71 94 3.0 14.0 0.00 0.00 0.00 42 1017.4
20260508123052 72 138 2.0 9.0 0.00 0.00 0.00 43 1017.4
20260508122547 72 130 3.0 9.0 0.00 0.00 0.00 43 1017.6
20260508122046 72 115 2.0 9.0 0.00 0.00 0.00 44 1017.8
20260508121548 72 65 3.0 9.0 0.00 0.00 0.00 46 1018.0
20260508121044 71 89 4.0 9.0 0.00 0.00 0.00 46 1018.0
20260508120542 70 88 2.0 7.0 0.00 0.00 0.00 48 1017.9
20260508120042 68 58 2.0 7.0 0.00 0.00 0.00 50 1018.1
20260508115540 68 38 2.0 7.0 0.00 0.00 0.00 51 1017.9
20260508115044 69 96 1.0 7.0 0.00 0.00 0.00 52 1017.6
20260508114540 69 129 0.0 7.0 0.00 0.00 0.00 53 1017.4
20260508114039 68 180 3.0 7.0 0.00 0.00 0.00 52 1016.9
20260508113539 68 104 1.0 6.0 0.00 0.00 0.00 57 1017.5
20260508113039 67 178 1.0 6.0 0.00 0.00 0.00 57 1017.9
20260508112535 66 108 1.0 3.0 0.00 0.00 0.00 58 1018.1
20260508112035 66 101 0.0 3.0 0.00 0.00 0.00 58 1018.3
20260508111538 66 61 0.0 3.0 0.00 0.00 0.00 59 1018.3
20260508111037 66 44 1.0 3.0 0.00 0.00 0.00 59 1018.6
20260508110534 66 39 0.0 5.0 0.00 0.00 0.00 58 1018.3
20260508110035 66 39 0.0 5.0 0.00 0.00 0.00 59 1018.5
20260508105535 66 111 0.0 3.0 0.00 0.00 0.00 58 1018.6
20260508105035 66 123 0.0 3.0 0.00 0.00 0.00 58 1018.8
20260508104534 66 190 0.0 3.0 0.00 0.00 0.00 58 1018.8
20260508104036 66 98 1.0 8.0 0.00 0.00 0.00 58 1019.0
20260508103534 66 309 2.0 8.0 0.00 0.00 0.00 57 1019.2
20260508103036 66 96 0.0 4.0 0.00 0.00 0.00 58 1019.0
20260508102534 66 341 1.0 4.0 0.00 0.00 0.00 58 1018.9
20260508102034 66 203 1.0 4.0 0.00 0.00 0.00 58 1019.0
20260508101534 66 65 0.0 4.0 0.00 0.00 0.00 57 1018.9
20260508101032 66 49 0.0 3.0 0.00 0.00 0.00 56 1018.9
20260508100532 66 20 0.0 5.0 0.00 0.00 0.00 57 1019.1
20260508100032 66 76 1.0 4.0 0.00 0.00 0.00 56 1019.2
20260508095532 66 74 1.0 5.0 0.00 0.00 0.00 57 1019.3
20260508095030 66 52 2.0 5.0 0.00 0.00 0.00 57 1019.4
20260508094531 66 61 0.0 5.0 0.00 0.00 0.00 56 1019.6
20260508094030 66 57 2.0 5.0 0.00 0.00 0.00 57 1019.5